Weather History for Newberry, MI

Change the Weather History Date:

Saturday, December 15, 2012

  Actual Average Record
Temperature  
Mean Temperature 29 °F -  
Max Temperature 37 °F 28 °F 44 °F (1993)
Min Temperature 21 °F 16 °F -18 °F (1926)
Degree Days  
Heating Degree Days 36    
Moisture  
Dew Point 30 °F    
Average Humidity 92    
Maximum Humidity 100    
Minimum Humidity 81    
Precipitation  
Precipitation 0.00 in - - ()
Sea Level Pressure  
Sea Level Pressure 29.95 in    
Wind  
Wind Speed 11 mph (ESE)    
Max Wind Speed 20 mph    
Max Gust Speed 26 mph    
Visibility 8 miles    
Events Rain , Snow    
Averages and records for this station are not official NWS values.
T = Trace of Precipitation, MM = Missing Value Source: NWS Daily Summary

Daily Weather History Graph

Daily Weather History Graph

Search for Another Location

Airport:

Trip Planner

Search our weather history database for the weather conditions in past years. The results will help you decide how hot, cold, wet, or windy it might be!

Date:

Astronomy

Dec. 15, 2012 Rise Set
Actual Time 8:18 AM EST 4:55 PM EST
Civil Twilight 7:43 AM EST 5:30 PM EST
Nautical Twilight 7:05 AM EST 6:09 PM EST
Astronomical Twilight 6:28 AM EST 6:45 PM EST
Moon 10:04 AM EST (12/15) 8:06 PM EST (12/15)
Length of Visible Light 9h 47m
Length of Day
8h 37m
Waxing Crescent, 8% of the Moon is Illuminated
Dec 15
Waxing Crescent
Dec 20
First Quarter
Dec 28
Full
Jan 4
Last Quarter
Jan 11
New

Hourly Weather History & Observations

Time (EST) Temp. Windchill Dew Point Humidity Pressure Visibility Wind Dir Wind Speed Gust Speed Precip Events Conditions
12:15 AM 21.2 °F 12.6 °F 21.2 °F 100% 30.19 in 10.0 mi ESE 6.9 mph - N/A   Clear
12:34 AM 21.2 °F 13.6 °F 21.2 °F 100% 30.19 in 10.0 mi East 5.8 mph - N/A   Clear
12:55 AM 21.2 °F 12.6 °F 19.4 °F 93% 30.19 in 10.0 mi ESE 6.9 mph - N/A   Clear
1:14 AM 23.0 °F 14.7 °F 21.2 °F 93% 30.18 in 10.0 mi East 6.9 mph - N/A   Scattered Clouds
1:35 AM 21.2 °F 12.6 °F 21.2 °F 100% 30.17 in 10.0 mi East 6.9 mph - N/A   Mostly Cloudy
1:55 AM 23.0 °F 15.8 °F 21.2 °F 93% 30.16 in 10.0 mi ESE 5.8 mph - N/A   Overcast
2:14 AM 24.8 °F 17.9 °F 21.2 °F 86% 30.15 in 10.0 mi East 5.8 mph - N/A   Overcast
2:35 AM 24.8 °F 16.1 °F 23.0 °F 93% 30.14 in 10.0 mi East 8.1 mph - N/A   Overcast
2:54 AM 24.8 °F 16.9 °F 24.8 °F 100% 30.15 in 10.0 mi East 6.9 mph - N/A   Overcast
3:15 AM 26.6 °F 20.0 °F 24.8 °F 93% 30.15 in 10.0 mi East 5.8 mph - N/A   Overcast
3:35 AM 26.6 °F 18.2 °F 24.8 °F 93% 30.14 in 10.0 mi East 8.1 mph - N/A   Overcast
3:54 AM 26.6 °F 18.2 °F 26.6 °F 100% 30.13 in 10.0 mi East 8.1 mph - N/A   Overcast
4:15 AM 28.4 °F 20.4 °F 26.6 °F 93% 30.13 in 10.0 mi East 8.1 mph - N/A   Overcast
4:35 AM 28.4 °F 19.1 °F 26.6 °F 93% 30.13 in 10.0 mi ESE 10.4 mph - N/A   Overcast
4:54 AM 28.4 °F 18.5 °F 26.6 °F 93% 30.11 in 10.0 mi ESE 11.5 mph - N/A   Overcast
5:15 AM 28.4 °F 19.1 °F 26.6 °F 93% 30.11 in 10.0 mi ESE 10.4 mph - N/A   Overcast
5:35 AM 28.4 °F 18.5 °F 26.6 °F 93% 30.10 in 10.0 mi ESE 11.5 mph - N/A   Overcast
5:54 AM 28.4 °F 19.1 °F 26.6 °F 93% 30.10 in 10.0 mi ESE 10.4 mph - N/A   Overcast
6:15 AM 28.4 °F 19.1 °F 28.4 °F 100% 30.09 in 10.0 mi ESE 10.4 mph - N/A   Overcast
6:35 AM 28.4 °F 18.5 °F 28.4 °F 100% 30.09 in 10.0 mi ESE 11.5 mph - N/A   Overcast
6:55 AM 30.2 °F 20.8 °F 28.4 °F 93% 30.09 in 10.0 mi ESE 11.5 mph 18.4 mph N/A   Overcast
7:15 AM 30.2 °F 20.2 °F 28.4 °F 93% 30.09 in 10.0 mi SE 12.7 mph 19.6 mph N/A   Overcast
7:34 AM 30.2 °F 19.8 °F 28.4 °F 93% 30.08 in 10.0 mi ESE 13.8 mph 21.9 mph N/A   Overcast
7:55 AM 30.2 °F 19.3 °F 28.4 °F 93% 30.07 in 10.0 mi ESE 15.0 mph - N/A   Overcast
8:14 AM 32.0 °F 21.6 °F 30.2 °F 93% 30.07 in 10.0 mi ESE 15.0 mph 23.0 mph N/A   Overcast
8:35 AM 33.8 °F 23.9 °F 30.2 °F 87% 30.06 in 10.0 mi SE 15.0 mph 21.9 mph N/A   Overcast
8:55 AM 33.8 °F 22.8 °F 30.2 °F 87% 30.06 in 10.0 mi ESE 18.4 mph 24.2 mph N/A   Overcast
9:14 AM 33.8 °F 23.5 °F 30.2 °F 87% 30.05 in 10.0 mi ESE 16.1 mph 21.9 mph N/A   Overcast
9:35 AM 33.8 °F 24.3 °F 30.2 °F 87% 30.04 in 10.0 mi ESE 13.8 mph 23.0 mph N/A   Overcast
9:55 AM 33.8 °F 22.5 °F 30.2 °F 87% 30.03 in 10.0 mi ESE 19.6 mph 23.0 mph N/A   Overcast
10:14 AM 35.6 °F 24.8 °F 30.2 °F 81% 30.02 in 10.0 mi ESE 19.6 mph 25.3 mph N/A   Overcast
10:35 AM 35.6 °F 25.5 °F 32.0 °F 87% 30.01 in 10.0 mi SE 17.3 mph 26.5 mph N/A   Overcast
10:55 AM 35.6 °F 25.9 °F 32.0 °F 87% 30.01 in 10.0 mi ESE 16.1 mph 20.7 mph N/A   Overcast
11:14 AM 35.6 °F 25.5 °F 30.2 °F 81% 29.99 in 10.0 mi SE 17.3 mph 25.3 mph N/A   Overcast
11:35 AM 35.6 °F 26.6 °F 32.0 °F 87% 29.98 in 10.0 mi SE 13.8 mph 24.2 mph N/A   Overcast
11:54 AM 35.6 °F 24.8 °F 32.0 °F 87% 29.97 in 10.0 mi SE 19.6 mph 23.0 mph N/A   Overcast
12:15 PM 35.6 °F 27.5 °F 32.0 °F 87% 29.97 in 10.0 mi SE 11.5 mph 23.0 mph N/A   Overcast
12:35 PM 35.6 °F 25.9 °F 32.0 °F 87% 29.96 in 10.0 mi SE 16.1 mph 26.5 mph N/A   Overcast
12:54 PM 35.6 °F 25.5 °F 32.0 °F 87% 29.95 in 10.0 mi SE 17.3 mph 26.5 mph N/A   Overcast
1:15 PM 35.6 °F 25.2 °F 32.0 °F 87% 29.94 in 10.0 mi ESE 18.4 mph - N/A   Overcast
1:35 PM 37.4 °F 28.5 °F 32.0 °F 81% 29.92 in 10.0 mi ESE 15.0 mph 25.3 mph N/A   Mostly Cloudy
1:54 PM 37.4 °F 27.5 °F 32.0 °F 81% 29.90 in 10.0 mi ESE 18.4 mph 25.3 mph N/A   Scattered Clouds
2:15 PM 37.4 °F 27.8 °F 33.8 °F 87% 29.89 in 10.0 mi ESE 17.3 mph 26.5 mph N/A   Scattered Clouds
2:35 PM 37.4 °F 28.5 °F 33.8 °F 87% 29.88 in 10.0 mi ESE 15.0 mph 19.6 mph N/A   Scattered Clouds
2:54 PM 37.4 °F 29.8 °F 33.8 °F 87% 29.88 in 10.0 mi ESE 11.5 mph - N/A   Scattered Clouds
3:15 PM 37.4 °F 28.5 °F 33.8 °F 87% 29.86 in 7.0 mi ESE 15.0 mph - N/A Rain Light Rain
3:35 PM 37.4 °F 27.8 °F 33.8 °F 87% 29.85 in 10.0 mi East 17.3 mph 23.0 mph N/A   Mostly Cloudy
3:55 PM 37.4 °F 28.5 °F 33.8 °F 87% 29.85 in 7.0 mi ESE 15.0 mph 23.0 mph N/A   Mostly Cloudy
4:15 PM 35.6 °F 26.2 °F 33.8 °F 93% 29.84 in 7.0 mi ESE 15.0 mph 21.9 mph N/A   Overcast
4:34 PM 35.6 °F 27.1 °F 33.8 °F 93% 29.83 in 5.0 mi ESE 12.7 mph 19.6 mph N/A Snow Light Snow
4:55 PM 35.6 °F 26.6 °F 33.8 °F 93% 29.82 in 5.0 mi ESE 13.8 mph 21.9 mph N/A Snow Light Snow
5:15 PM 35.6 °F 25.2 °F 33.8 °F 93% 29.81 in 4.0 mi ESE 18.4 mph 23.0 mph N/A   Overcast
5:34 PM 35.6 °F 25.5 °F 33.8 °F 93% 29.80 in 4.0 mi ESE 17.3 mph 20.7 mph N/A Snow Light Snow
5:55 PM 35.6 °F 25.5 °F 33.8 °F 93% 29.79 in 4.0 mi ESE 17.3 mph 21.9 mph N/A Snow Light Snow
6:14 PM 35.6 °F 25.5 °F 33.8 °F 93% 29.79 in 4.0 mi ESE 17.3 mph 24.2 mph N/A Snow Light Snow
6:35 PM 35.6 °F 25.5 °F 33.8 °F 93% 29.78 in 5.0 mi ESE 17.3 mph 24.2 mph N/A Snow Light Snow
6:55 PM 35.6 °F 26.6 °F 33.8 °F 93% 29.77 in 5.0 mi East 13.8 mph 20.7 mph N/A Snow Light Snow
7:14 PM 35.6 °F 26.6 °F 33.8 °F 93% 29.77 in 5.0 mi ESE 13.8 mph 19.6 mph N/A   Overcast
7:35 PM 35.6 °F 26.2 °F 33.8 °F 93% 29.76 in 5.0 mi ESE 15.0 mph 20.7 mph N/A Snow Light Snow
7:55 PM 35.6 °F 26.2 °F 33.8 °F 93% 29.75 in 3.0 mi East 15.0 mph 23.0 mph N/A Snow Light Snow
8:14 PM 35.6 °F 27.1 °F 33.8 °F 93% 29.74 in 4.0 mi ESE 12.7 mph - N/A Snow Light Snow
8:35 PM 35.6 °F 26.2 °F 33.8 °F 93% 29.73 in 3.0 mi East 15.0 mph - N/A Snow Light Snow
8:55 PM 35.6 °F 25.9 °F 33.8 °F 93% 29.72 in 4.0 mi ESE 16.1 mph 23.0 mph N/A Snow Light Snow
9:14 PM 35.6 °F 27.1 °F 33.8 °F 93% 29.71 in 3.0 mi ESE 12.7 mph - N/A Snow Light Snow
9:35 PM 33.8 °F 23.5 °F 33.8 °F 100% 29.71 in 2.5 mi East 16.1 mph 21.9 mph N/A Snow Light Snow
9:55 PM 33.8 °F 24.3 °F 32.0 °F 93% 29.70 in 2.5 mi East 13.8 mph 17.3 mph N/A Snow Light Snow
10:15 PM 33.8 °F 25.3 °F 33.8 °F 100% 29.69 in 3.0 mi East 11.5 mph 20.7 mph N/A Snow Light Snow
10:35 PM 33.8 °F 24.3 °F 32.0 °F 93% 29.68 in 2.5 mi ESE 13.8 mph 19.6 mph N/A Snow Light Snow
10:54 PM 33.8 °F 24.3 °F 32.0 °F 93% 29.67 in 2.0 mi East 13.8 mph 18.4 mph N/A Snow Light Snow
11:15 PM 33.8 °F 25.8 °F 32.0 °F 93% 29.66 in 1.8 mi East 10.4 mph - N/A Snow Light Snow
11:35 PM 33.8 °F 26.4 °F 32.0 °F 93% 29.66 in 1.8 mi East 9.2 mph - N/A Snow Light Snow
11:54 PM 33.8 °F 26.4 °F 32.0 °F 93% 29.65 in 3.0 mi East 9.2 mph - N/A Snow Light Snow